Bakersfield, CA

9:37 PM PST on December 12, 2017 (GMT -0800)
Meadows

Weather History for KBFL - November, 2012

Change the Weather History Date:

Wednesday, November 21, 2012

  Actual Average Record
Temperature  
Mean Temperature 59 °F 53 °F  
Max Temperature 72 °F 63 °F 83 °F (1926)
Min Temperature 46 °F 43 °F 26 °F (1905)
Degree Days  
Heating Degree Days 6    
Month to date heating degree days 141  
Since 1 July heating degree days 177  
Cooling Degree Days 0    
Month to date cooling degree days 9  
Year to date cooling degree days 2579  
Growing Degree Days 9 (Base 50)    
Moisture  
Dew Point 42 °F    
Average Humidity 55    
Maximum Humidity 72    
Minimum Humidity 38    
Precipitation  
Precipitation 0.00 in 0.02 in 0.65 in (2013)
Month to date precipitation 0.06 0.42  
Year to date precipitation 3.72 5.23  
Since 1 July precipitation 0.10  
Snow  
Snow 0.00 in - - ()
Month to date snowfall 0.0  
Since 1 July snowfall 0.0  
Since 1 September snowfall 0.0  
Snow Depth 0.00 in    
Sea Level Pressure  
Sea Level Pressure 30.12 in    
Wind  
Wind Speed 4 mph (NW)    
Max Wind Speed 12 mph    
Max Gust Speed 14 mph    
Visibility 10 miles    
Events      
T = Trace of Precipitation, MM = Missing Value Source: NWS Daily Summary

Daily Weather History Graph

Daily Weather History Graph

Search for Another Location

Airport or City:

Trip Planner

Search our weather history database for the weather conditions in past years. The results will help you decide how hot, cold, wet, or windy it might be!

Date:

Astronomy

Nov. 21, 2012 Rise Set
Actual Time 6:38 AM PST 4:46 PM PST
Civil Twilight 6:10 AM PST 5:13 PM PST
Nautical Twilight 5:39 AM PST 5:44 PM PST
Astronomical Twilight 5:09 AM PST 6:15 PM PST
Moon 12:53 PM PST (11/21) 12:15 AM PST (11/21)
Length of Visible Light 11h 03m
Length of Day
10h 08m
Waxing Gibbous, 63% of the Moon is Illuminated
Nov 21
Waxing Gibbous
Nov 28
Full
Dec 6
Last Quarter
Dec 13
New
Dec 19
First Quarter

Hourly Weather History & Observations

Time (PST) Temp. Dew Point Humidity Pressure Visibility Wind Dir Wind Speed Gust Speed Precip Events Conditions
12:54 AM 52.0 °F 39.9 °F 63% 30.11 in 10.0 mi Calm Calm - N/A   Clear
1:54 AM 48.0 °F 37.0 °F 66% 30.12 in 10.0 mi Calm Calm - N/A   Clear
2:54 AM 48.0 °F 37.9 °F 68% 30.11 in 10.0 mi Calm Calm - N/A   Clear
3:54 AM 46.0 °F 37.0 °F 71% 30.10 in 10.0 mi Calm Calm - N/A   Clear
4:54 AM 51.1 °F 37.9 °F 61% 30.11 in 10.0 mi Calm Calm - N/A   Clear
5:54 AM 53.1 °F 37.9 °F 57% 30.12 in 10.0 mi East 5.8 mph - N/A   Clear
6:54 AM 46.9 °F 37.0 °F 68% 30.14 in 10.0 mi ESE 3.5 mph - N/A   Clear
7:54 AM 54.0 °F 39.0 °F 57% 30.16 in 10.0 mi SE 4.6 mph - N/A   Clear
8:54 AM 60.1 °F 39.0 °F 46% 30.17 in 10.0 mi SE 4.6 mph - N/A   Clear
9:54 AM 64.0 °F 41.0 °F 43% 30.17 in 10.0 mi Calm Calm - N/A   Clear
10:54 AM 66.9 °F 43.0 °F 42% 30.15 in 10.0 mi Variable 4.6 mph - N/A   Clear
11:54 AM 68.0 °F 43.0 °F 40% 30.12 in 10.0 mi Calm Calm - N/A   Clear
12:54 PM 70.0 °F 44.1 °F 39% 30.10 in 10.0 mi West 3.5 mph - N/A   Clear
1:54 PM 71.1 °F 44.1 °F 38% 30.09 in 10.0 mi WNW 4.6 mph - N/A   Clear
2:54 PM 71.1 °F 44.1 °F 38% 30.07 in 10.0 mi WNW 5.8 mph - N/A   Clear
3:54 PM 71.1 °F 44.1 °F 38% 30.07 in 10.0 mi WNW 5.8 mph - N/A   Clear
4:54 PM 66.9 °F 45.0 °F 45% 30.07 in 10.0 mi NW 3.5 mph - N/A   Clear
5:54 PM 60.1 °F 43.0 °F 53% 30.08 in 10.0 mi NNW 3.5 mph - N/A   Clear
6:54 PM 61.0 °F 44.1 °F 54% 30.10 in 10.0 mi NNE 5.8 mph - N/A   Clear
7:54 PM 61.0 °F 45.0 °F 56% 30.11 in 10.0 mi North 6.9 mph - N/A   Clear
8:54 PM 59.0 °F 45.0 °F 60% 30.12 in 10.0 mi North 8.1 mph - N/A   Clear
9:54 PM 55.9 °F 46.0 °F 69% 30.14 in 9.0 mi West 8.1 mph - N/A   Scattered Clouds
10:54 PM 55.0 °F 46.9 °F 74% 30.15 in 8.0 mi WNW 5.8 mph - N/A   Scattered Clouds
11:54 PM 55.0 °F 48.0 °F 77% 30.17 in 7.0 mi Calm Calm - N/A   Overcast